This is the latest recevied weather packets stored in our database for station/object LKVO. If no packets are shown the sender has not sent any weather packets the latest 10 day(s).
| Time | Temp. | Humidity | Pressure | Rain* | Wind** | Luminosity | Snow |
|---|---|---|---|---|---|---|---|
| 1777896131 | 21.11° C | 40% | 1013 hPa | - | - | - | - |
| 1777892649 | 21.11° C | 40% | 1014 hPa | - | - | - | - |
| 1777889049 | 20° C | 40% | 1014 hPa | - | - | - | - |
| 1777885331 | 18.89° C | 48% | 1014 hPa | - | - | - | - |
| 1777881911 | 17.22° C | 48% | 1014 hPa | - | - | - | - |
| 1777878182 | 15° C | 51% | 1014 hPa | - | - | - | - |
| 1777877342 | 13.89° C | 54% | 1014 hPa | - | - | - | - |
| 1777561383 | 15° C | 30% | 1029 hPa | - | - | - | - |
| 1777557733 | 13.89° C | 26% | 1029 hPa | - | - | - | - |
| 1777550463 | 12.78° C | 28% | 1030 hPa | - | - | - | - |
| 1777546931 | 11.11° C | 32% | 1031 hPa | - | - | - | - |
| 1777543383 | 11.11° C | 29% | 1032 hPa | - | - | - | - |
| 1777539731 | 10° C | 29% | 1032 hPa | - | - | - | - |
| 1777536139 | 8.89° C | 34% | 1032 hPa | - | - | - | - |
| 1777532531 | 7.22° C | 42% | 1032 hPa | - | - | - | - |
| 1777528984 | 3.89° C | 51% | 1032 hPa | - | - | - | - |
| 1777467783 | 12.78° C | 26% | 1026 hPa | - | - | - | - |
| 1777464249 | 12.22° C | 25% | 1026 hPa | - | - | - | - |
| 1777460531 | 12.22° C | 30% | 1026 hPa | - | - | - | - |
| 1777457049 | 12.22° C | 32% | 1026 hPa | - | - | - | - |
| 1777453331 | 11.11° C | 34% | 1026 hPa | - | - | - | - |
| 1777449849 | 10° C | 37% | 1026 hPa | - | - | - | - |
| 1777446249 | 8.89° C | 42% | 1026 hPa | - | - | - | - |
| 1777444383 | 7.78° C | 39% | 1026 hPa | - | - | - | - |
| 1777381271 | 17.22° C | 31% | 1021 hPa | - | - | - | - |
* Rain since midnight (hover to see other rain measurements)
** Current wind speed in m/s (hover to see current wind gust speed)